Flag for Dominican Republic Past Weather in Santiago de los Caballeros, Dominican Republic — Yesterday and Last 2 Weeks

Now
72 °F

Partly cloudy.


Feels Like: 65 °F
Forecast: 71 / 80 °F
Wind: 3 mph from Northwest

Location: Santiago

Current Time: Dec 11, 2016 at 2:19:00 am

Latest Report: Dec 11, 2016 at 2:00 am


Visibility: N/A

Pressure: 30.09 "Hg

Humidity: 100%

Dew Point: 72 °F

Location of Santiago de los CaballerosLocation

Past Weather in Santiago de los Caballeros — Graph

°F

Santiago de los Caballeros Temperature Yesterday

Maximum temperature yesterday: 84 °F (at 3:00 pm)
Minimum temperature yesterday: 70 °F (at 2:00 am)
Average temperature yesterday: 76 °F

High & Low Weather Summary for the Past Weeks

 TemperatureHumidityPressure
High88 °F (Dec 3, 2:00 pm)100% (Nov 26, 1:00 am)30.12 "Hg (Nov 26, 1:00 am)
Low66 °F (Nov 28, 6:00 am)58% (Nov 28, 2:00 pm)29.77 "Hg (Nov 27, 3:00 pm)
Average76 °F89%29.96 "Hg
* Reported Nov 26 1:00 am — Dec 11 1:00 am, Santiago de los Caballeros, Weather by CustomWeather, © 2016

Note: Actual official high and low records may vary slightly from our data, if they occured in-between our weather recording intervals... More about our weather records

Advertising

Santiago de los Caballeros Weather History for the Previous 24 Hours

Scroll right to see more
 ConditionsComfort  
Time TempWeatherWind HumidityBarometerVisibility
1:00 am
Sun, Dec 11
72 °FPassing clouds.No wind100%30.09 "HgN/A
12:00 am72 °FRain. Partly cloudy.3 mph100%30.09 "Hg2 mi
11:00 pm
Sat, Dec 10
75 °FPartly cloudy.5 mph100%30.09 "HgN/A
10:00 pm75 °FPassing clouds.6 mph100%30.09 "HgN/A
9:00 pm75 °FPassing clouds.5 mph100%30.09 "HgN/A
8:00 pm75 °FPartly cloudy.7 mph100%30.07 "HgN/A
7:00 pm75 °FPassing clouds.6 mph83%30.04 "HgN/A
6:00 pm79 °FPartly sunny.8 mph84%30.04 "HgN/A
5:00 pm79 °FPartly sunny.8 mph89%30.04 "HgN/A
4:00 pm81 °FPartly sunny.12 mph79%30.01 "HgN/A
3:00 pm84 °FPartly sunny.9 mph74%30.01 "HgN/A
2:00 pm81 °FBroken clouds.9 mph74%30.04 "HgN/A
1:00 pm81 °FScattered clouds.9 mph79%30.07 "HgN/A
12:00 pm82 °FScattered clouds.7 mph79%30.09 "HgN/A
11:00 am79 °FScattered clouds.8 mph89%30.12 "HgN/A
10:00 am77 °FScattered clouds.6 mph100%30.12 "HgN/A
9:00 am75 °FScattered clouds.No wind100%30.12 "HgN/A
8:00 am72 °FPartly sunny.3 mph100%30.09 "HgN/A
7:00 am72 °FPassing clouds.No wind100%30.07 "HgN/A
6:00 am72 °FPassing clouds.No wind100%30.07 "HgN/A
5:00 am72 °FPassing clouds.No wind100%N/AN/A
4:00 am70 °FPassing clouds.No wind100%30.04 "HgN/A
3:00 am72 °FPassing clouds.No wind100%30.04 "HgN/A
2:00 am70 °FPassing clouds.3 mph100%30.07 "HgN/A
Weather by CustomWeather, © 2016

See weather overviewHow to use our weather pages